CFZKH CYWG-CYWG

Flight info

Callsign CFZKH
Flight time N/A
Altitude 5000
Route CKK7 CYWG / SIFR
Aircraft PA44/L-VGDW/C

Departure

Time 2026-04-27 00:18
Airport Winnipeg / James Armstrong Richardson International Airport (CYWG)

Arrival

Time N/A
Airport Winnipeg / James Armstrong Richardson International Airport (CYWG)
Time Latitude Longitude Altitude Speed Heading
2026-04-26 23:56 49.90465 -97.25181 781 ft 0 kts 266°
2026-04-26 23:58 49.90468 -97.25206 781 ft 5 kts 287°
2026-04-26 23:59 49.90536 -97.25235 783 ft 13 kts 13°
2026-04-26 23:59 49.90564 -97.25114 782 ft 14 kts 85°
2026-04-26 23:59 49.90572 -97.24960 780 ft 15 kts 82°
2026-04-26 23:59 49.90591 -97.24804 780 ft 15 kts 78°
2026-04-27 00:00 49.90605 -97.24723 779 ft 0 kts 129°
2026-04-27 00:01 49.90605 -97.24722 779 ft 0 kts 106°
2026-04-27 00:02 49.90603 -97.24719 779 ft 0 kts 151°
2026-04-27 00:07 49.90600 -97.24714 779 ft 6 kts 117°
2026-04-27 00:07 49.90611 -97.24639 779 ft 0 kts 79°
2026-04-27 00:09 49.90612 -97.24636 779 ft 0 kts 79°
2026-04-27 00:10 49.90612 -97.24634 779 ft 5 kts 79°
2026-04-27 00:10 49.90615 -97.24608 779 ft 0 kts 78°
2026-04-27 00:14 49.90622 -97.24571 779 ft 7 kts 70°
2026-04-27 00:14 49.90634 -97.24540 780 ft 0 kts 47°
2026-04-27 00:15 49.90650 -97.24513 781 ft 18 kts 46°
2026-04-27 00:15 49.90745 -97.24233 783 ft 37 kts 79°
2026-04-27 00:16 49.90768 -97.24053 785 ft 0 kts 77°
2026-04-27 00:17 49.90794 -97.23923 782 ft 24 kts 52°
2026-04-27 00:17 49.90917 -97.23864 782 ft 5 kts
2026-04-27 00:17 49.90921 -97.23863 782 ft 0 kts
2026-04-27 00:18 49.91056 -97.23831 778 ft 52 kts
2026-04-27 00:18 49.91557 -97.23701 923 ft 80 kts
2026-04-27 00:18 49.92136 -97.23562 1269 ft 90 kts
2026-04-27 00:18 49.92764 -97.23450 1692 ft 89 kts 354°
2026-04-27 00:19 49.93421 -97.23419 2049 ft 101 kts 357°
2026-04-27 00:19 49.94154 -97.23397 2375 ft 113 kts
2026-04-27 00:19 49.94935 -97.23190 2785 ft 115 kts
2026-04-27 00:19 49.95723 -97.22998 3209 ft 114 kts
2026-04-27 00:20 49.96244 -97.22164 3596 ft 113 kts 85°
2026-04-27 00:20 49.96233 -97.20983 4025 ft 107 kts 91°
2026-04-27 00:20 49.96262 -97.19864 4457 ft 104 kts 92°
2026-04-27 00:20 49.96293 -97.18763 4892 ft 100 kts 92°
2026-04-27 00:21 49.96328 -97.17625 5087 ft 123 kts 92°
2026-04-27 00:21 49.96352 -97.16149 5016 ft 146 kts 92°
2026-04-27 00:21 49.96037 -97.14698 5008 ft 145 kts 132°
2026-04-27 00:21 49.95388 -97.13477 5006 ft 149 kts 133°
2026-04-27 00:22 49.94732 -97.12212 5011 ft 151 kts 133°
2026-04-27 00:22 49.94067 -97.10932 5007 ft 153 kts 133°
2026-04-27 00:22 49.93405 -97.09651 5008 ft 152 kts 133°
2026-04-27 00:22 49.92743 -97.08363 5011 ft 152 kts 133°
2026-04-27 00:23 49.92081 -97.07078 5007 ft 153 kts 133°
2026-04-27 00:23 49.91416 -97.05793 5010 ft 153 kts 133°
2026-04-27 00:23 49.90753 -97.04509 5011 ft 152 kts 133°
2026-04-27 00:23 49.90086 -97.03237 5013 ft 150 kts 136°
2026-04-27 00:24 49.89206 -97.02473 4996 ft 145 kts 169°
2026-04-27 00:24 49.88217 -97.02159 4996 ft 145 kts 171°
2026-04-27 00:24 49.87233 -97.01781 5004 ft 146 kts 168°
2026-04-27 00:24 49.86256 -97.01345 5001 ft 146 kts 167°
2026-04-27 00:25 49.85278 -97.00894 5001 ft 147 kts 167°
2026-04-27 00:25 49.84302 -97.00439 5003 ft 146 kts 166°
2026-04-27 00:25 49.83338 -96.99989 5003 ft 147 kts 166°
2026-04-27 00:25 49.82362 -96.99533 5007 ft 147 kts 166°
2026-04-27 00:26 49.81384 -96.99078 4999 ft 146 kts 166°
2026-04-27 00:26 49.80412 -96.98625 5006 ft 146 kts 166°
2026-04-27 00:26 49.79444 -96.98174 5001 ft 146 kts 166°
2026-04-27 00:26 49.78472 -96.97721 4999 ft 146 kts 166°
2026-04-27 00:27 49.77497 -96.97267 5001 ft 146 kts 166°
2026-04-27 00:27 49.76524 -96.96813 5004 ft 146 kts 166°
2026-04-27 00:27 49.75550 -96.96361 5003 ft 147 kts 166°
2026-04-27 00:27 49.74574 -96.95907 5003 ft 146 kts 166°
2026-04-27 00:28 49.73598 -96.95453 5003 ft 147 kts 166°
2026-04-27 00:28 49.72624 -96.95000 5010 ft 146 kts 166°
2026-04-27 00:28 49.71652 -96.94549 5009 ft 146 kts 166°
2026-04-27 00:28 49.70677 -96.94097 5008 ft 147 kts 166°
2026-04-27 00:29 49.69702 -96.93644 5009 ft 146 kts 166°
2026-04-27 00:29 49.68728 -96.93193 5009 ft 146 kts 165°
2026-04-27 00:29 49.67757 -96.92742 5010 ft 145 kts 166°
2026-04-27 00:29 49.67114 -96.92444 5008 ft 146 kts 165°
2026-04-27 00:30 49.66178 -96.91868 5007 ft 146 kts 147°
2026-04-27 00:30 49.65579 -96.90589 4745 ft 154 kts 111°
2026-04-27 00:30 49.65595 -96.88930 4342 ft 161 kts 73°
2026-04-27 00:30 49.66229 -96.87552 3943 ft 156 kts 44°
2026-04-27 00:31 49.66898 -96.86282 3552 ft 152 kts 59°
2026-04-27 00:31 49.67424 -96.84885 3166 ft 150 kts 62°
2026-04-27 00:31 49.67936 -96.83493 2783 ft 147 kts 61°
2026-04-27 00:31 49.68434 -96.82138 2413 ft 143 kts 63°
2026-04-27 00:32 49.68596 -96.80838 2488 ft 116 kts 100°
2026-04-27 00:32 49.68261 -96.79698 2489 ft 119 kts 134°
2026-04-27 00:32 49.67583 -96.78983 2495 ft 119 kts 156°
2026-04-27 00:32 49.66855 -96.78351 2491 ft 120 kts 153°
2026-04-27 00:33 49.66147 -96.77722 2490 ft 115 kts 153°
2026-04-27 00:33 49.65461 -96.77122 2491 ft 113 kts 154°
2026-04-27 00:33 49.64781 -96.76523 2496 ft 111 kts 154°
2026-04-27 00:33 49.64119 -96.75942 2496 ft 111 kts 153°
2026-04-27 00:34 49.63450 -96.75355 2501 ft 111 kts 154°
2026-04-27 00:34 49.62782 -96.74772 2494 ft 110 kts 153°
2026-04-27 00:34 49.62100 -96.74177 2435 ft 112 kts 153°
2026-04-27 00:34 49.61414 -96.73580 2286 ft 114 kts 153°
2026-04-27 00:35 49.60719 -96.72972 2123 ft 116 kts 153°
2026-04-27 00:35 49.60021 -96.72361 1964 ft 115 kts 153°
2026-04-27 00:35 49.59381 -96.71801 1783 ft 95 kts 153°
2026-04-27 00:35 49.58819 -96.71311 1647 ft 91 kts 153°
2026-04-27 00:36 49.58265 -96.70828 1514 ft 96 kts 152°
2026-04-27 00:36 49.57653 -96.70294 1372 ft 103 kts 152°
2026-04-27 00:36 49.57021 -96.69745 1218 ft 106 kts 151°
2026-04-27 00:36 49.56444 -96.69235 1587 ft 90 kts 152°
2026-04-27 00:37 49.55822 -96.68656 1810 ft 113 kts 148°
2026-04-27 00:37 49.55137 -96.67945 2129 ft 123 kts 149°
2026-04-27 00:37 49.54424 -96.67202 2492 ft 124 kts 148°
2026-04-27 00:37 49.53649 -96.66402 2609 ft 137 kts 148°
2026-04-27 00:38 49.52898 -96.65624 3126 ft 123 kts 149°
2026-04-27 00:38 49.52225 -96.64926 3625 ft 111 kts 148°
2026-04-27 00:38 49.51615 -96.64286 4119 ft 102 kts 147°
2026-04-27 00:38 49.51338 -96.63394 4584 ft 101 kts 76°
2026-04-27 00:39 49.51857 -96.62778 5064 ft 91 kts 28°
2026-04-27 00:39 49.52364 -96.62272 5476 ft 91 kts 33°
2026-04-27 00:39 49.53066 -96.61586 5288 ft 144 kts 34°
2026-04-27 00:39 49.53996 -96.60668 5088 ft 170 kts 33°
2026-04-27 00:40 49.55028 -96.59653 4956 ft 177 kts 33°
2026-04-27 00:40 49.56068 -96.58713 5017 ft 171 kts 20°
2026-04-27 00:40 49.57204 -96.58830 5021 ft 169 kts 330°
2026-04-27 00:40 49.57935 -96.60186 5020 ft 166 kts 293°
2026-04-27 00:41 49.58440 -96.61794 5033 ft 168 kts 293°
2026-04-27 00:41 49.58957 -96.63403 5029 ft 167 kts 293°
2026-04-27 00:41 49.59472 -96.65014 5034 ft 167 kts 293°
2026-04-27 00:41 49.59988 -96.66620 5034 ft 167 kts 293°
2026-04-27 00:42 49.60505 -96.68229 5037 ft 168 kts 293°
2026-04-27 00:42 49.61024 -96.69840 5037 ft 168 kts 293°
2026-04-27 00:42 49.61541 -96.71453 5035 ft 167 kts 293°
2026-04-27 00:42 49.62054 -96.73060 5043 ft 168 kts 293°
2026-04-27 00:43 49.62575 -96.74672 5038 ft 168 kts 293°
2026-04-27 00:43 49.63095 -96.76284 5039 ft 168 kts 293°
2026-04-27 00:43 49.63613 -96.77896 5041 ft 168 kts 293°
2026-04-27 00:43 49.64132 -96.79503 5044 ft 168 kts 293°
2026-04-27 00:44 49.64654 -96.81112 5042 ft 167 kts 293°
2026-04-27 00:44 49.65177 -96.82721 5037 ft 168 kts 293°
2026-04-27 00:44 49.65698 -96.84327 5038 ft 167 kts 293°
2026-04-27 00:44 49.66211 -96.85908 5039 ft 167 kts 293°
2026-04-27 00:45 49.66731 -96.87511 5042 ft 167 kts 293°
2026-04-27 00:45 49.67250 -96.89113 5039 ft 166 kts 293°
2026-04-27 00:45 49.67606 -96.90792 5035 ft 164 kts 280°
2026-04-27 00:45 49.67876 -96.92508 5032 ft 164 kts 281°
2026-04-27 00:46 49.68176 -96.94205 5029 ft 164 kts 282°
2026-04-27 00:46 49.68483 -96.95895 5033 ft 164 kts 282°
2026-04-27 00:46 49.68792 -96.97599 5033 ft 165 kts 282°
2026-04-27 00:46 49.69099 -96.99301 5031 ft 164 kts 282°
2026-04-27 00:47 49.69407 -97.01001 5033 ft 165 kts 282°
2026-04-27 00:47 49.69715 -97.02704 5031 ft 164 kts 282°
2026-04-27 00:47 49.70018 -97.04384 5028 ft 159 kts 282°
2026-04-27 00:47 49.70311 -97.06000 5025 ft 154 kts 282°
2026-04-27 00:48 49.70596 -97.07583 5020 ft 152 kts 282°
2026-04-27 00:48 49.70878 -97.09151 5015 ft 151 kts 282°
2026-04-27 00:48 49.71159 -97.10715 5019 ft 151 kts 282°
2026-04-27 00:48 49.71441 -97.12279 5012 ft 151 kts 282°
2026-04-27 00:49 49.71725 -97.13843 5011 ft 151 kts 282°
2026-04-27 00:49 49.72008 -97.15407 5011 ft 151 kts 282°
2026-04-27 00:49 49.72293 -97.16973 5012 ft 151 kts 282°
2026-04-27 00:49 49.72787 -97.18380 5009 ft 154 kts 318°
2026-04-27 00:50 49.73772 -97.18669 5010 ft 147 kts 17°
2026-04-27 00:50 49.74346 -97.16190 5016 ft 131 kts 103°
2026-04-27 00:50 49.74214 -97.14798 5006 ft 131 kts 102°
2026-04-27 00:51 49.74049 -97.13428 5015 ft 129 kts 108°
2026-04-27 00:51 49.73834 -97.12082 5009 ft 129 kts 107°
2026-04-27 00:51 49.73610 -97.10753 5002 ft 125 kts 115°
2026-04-27 00:51 49.73000 -97.10031 5006 ft 112 kts 181°
2026-04-27 00:52 49.72441 -97.10701 5005 ft 112 kts 253°
2026-04-27 00:52 49.72549 -97.11897 5011 ft 116 kts 289°
2026-04-27 00:52 49.72914 -97.13000 5022 ft 114 kts 286°
2026-04-27 00:52 49.73166 -97.14164 5021 ft 114 kts 283°
2026-04-27 00:53 49.73408 -97.15335 5020 ft 114 kts 283°
2026-04-27 00:53 49.73645 -97.16505 5020 ft 114 kts 283°
2026-04-27 00:53 49.73884 -97.17678 5023 ft 114 kts 283°
2026-04-27 00:53 49.74443 -97.18519 4996 ft 123 kts 346°
2026-04-27 00:54 49.75191 -97.18015 5004 ft 124 kts 59°
2026-04-27 00:54 49.75220 -97.16767 5016 ft 118 kts 110°
2026-04-27 00:54 49.74995 -97.15544 5020 ft 118 kts 114°
2026-04-27 00:54 49.74707 -97.14356 5024 ft 118 kts 115°
2026-04-27 00:55 49.74422 -97.13152 5024 ft 120 kts 115°
2026-04-27 00:55 49.74137 -97.11944 5020 ft 120 kts 115°
2026-04-27 00:55 49.73656 -97.10985 4993 ft 113 kts 163°
2026-04-27 00:55 49.72996 -97.11314 5000 ft 108 kts 234°
2026-04-27 00:56 49.72971 -97.12487 5010 ft 112 kts 276°
2026-04-27 00:56 49.73108 -97.13677 5013 ft 113 kts 276°
2026-04-27 00:56 49.73246 -97.14858 5022 ft 113 kts 276°
2026-04-27 00:56 49.73386 -97.16061 5012 ft 114 kts 276°
2026-04-27 00:57 49.73522 -97.17259 5021 ft 113 kts 275°
2026-04-27 00:57 49.73660 -97.18463 5015 ft 114 kts 276°
2026-04-27 00:57 49.73798 -97.19676 5015 ft 115 kts 276°